Regional Weather Roundup
Issued by NWS

Home | Current Version | Previous Version | Text Only | Print | Product List | Glossary Off
Versions: 1 2 3 4 5 6 7 8 9 10 11 12 13 14 15 16 17 18 19 20 21 22 23 24 25 26 27 28 29 30 31 32 33 34 35 36 37 38 39 40 41 42 43 44 45 46 47 48 49 50

000
ASUS44 KMEG 020100
RWRTN
TENNESSEE HOURLY STATE WEATHER ROUNDUP
NATIONAL WEATHER SERVICE MEMPHIS TN
800 PM CDT SAT AUG 01 2015

TNZ002-004-019-021-049-052-054-088>092-020200-
WEST TENNESSEE

CITY           SKY/WX    TMP DP  RH WIND       PRES   REMARKS
MEMPHIS INTL   PTCLDY    87  64  46 N7        29.95S
NWS MEMPHIS      N/A     85 N/A N/A MISG        N/A
JACKSON        CLEAR     86  68  54 W3        29.95S
DYERSBURG        N/A    N/A N/A N/A MISG        N/A
PARIS          CLEAR     79  70  73 CALM      29.98S
LEXINGTON      CLEAR     81  72  74 CALM      29.96R
$$

TNZ008-025-027-028-033-062-065-066-020200-
NORTH MIDDLE TENNESSEE

CITY           SKY/WX    TMP DP  RH WIND       PRES   REMARKS
NASHVILLE      PTCLDY    84  66  54 N8        29.97R
CLARKSVILLE    CLEAR     80  69  69 N6        29.97R
CROSSVILLE     CLEAR     76  62  62 N3        30.04R
$$

TNZ061-075-076-078-094-096-097-020200-
SOUTH MIDDLE TENNESSEE

CITY           SKY/WX    TMP DP  RH WIND       PRES   REMARKS
FAYETTEVILLE   CLEAR     79  63  57 CALM      29.98R
TULLAHOMA      CLEAR     79  66  65 CALM      29.99S
WINCHESTER     CLEAR     79  66  65 CALM      29.97S
MCMINNVILLE    CLEAR     77  68  73 CALM      29.99R
COLUMBIA       CLEAR     84  70  61 CALM      29.96R
SHELBYVILLE    CLEAR     81  66  61 CALM      29.98R
$$

TNZ017-018-042-046-047-020200-
NORTHEAST TENNESSEE

CITY           SKY/WX    TMP DP  RH WIND       PRES   REMARKS
TRI CITIES     PTCLDY    76  60  57 NW3       29.99R
ELIZABETHTON   MOCLDY    66  61  82 CALM      30.00R
$$

TNZ012-013-036-069-073-074-020200-
CENTRAL EAST TENNESSEE

CITY           SKY/WX    TMP DP  RH WIND       PRES   REMARKS
KNOXVILLE      PTCLDY    83  61  47 NW3       29.96R
OAK RIDGE      CLEAR     80  61  52 CALM      29.98R
GATLINBURG     CLEAR     77  61  57 CALM      29.97R
$$

TNZ083-085-099-020200-
SOUTHEAST TENNESSEE

CITY           SKY/WX    TMP DP  RH WIND       PRES   REMARKS
CHATTANOOGA    PTCLDY    84  65  52 NE5       29.94S
$$

SKY/WX REPORTED AS FAIR MEANS FEW OR NO CLOUDS BELOW
12 THOUSAND FEET.




USA.gov is the U.S. government's official web portal to all federal, state and local government web resources and services.